GW5351 Weather Reports


time (UTC)temp
C
wind
direction
speed
KPH
gust
KPH
rain 1hr
cm
rain 24hr
cm
rain mn
cm
humidity
%
barometer
mb
20260508045857 20 156 0.0 3.2 0.00 0.00 0.00 79 1014.5
20260508045355 20 156 0.0 3.2 0.00 0.00 0.00 79 1014.7
20260508044852 20 160 0.0 0.0 0.00 0.00 0.00 79 1014.7
20260508044349 20 160 1.6 3.2 0.00 0.00 0.00 78 1014.7
20260508043845 20 173 0.0 4.8 0.00 0.00 0.00 78 1014.5
20260508043342 20 213 0.0 3.2 0.00 0.00 0.00 78 1014.6
20260508042838 20 265 1.6 3.2 0.00 0.00 0.00 78 1014.6
20260508042337 20 236 0.0 3.2 0.00 0.00 0.00 78 1014.7
20260508041833 20 211 0.0 3.2 0.00 0.00 0.00 78 1014.7
20260508041329 20 305 4.8 6.4 0.00 0.00 0.00 77 1014.7
20260508040826 20 214 0.0 4.8 0.00 0.00 0.00 78 1014.8
20260508040324 20 203 0.0 3.2 0.00 0.00 0.00 77 1014.9
20260508035820 20 154 0.0 1.6 0.00 0.00 0.00 77 1014.8
20260508035318 20 154 0.0 3.2 0.00 0.00 0.00 77 1014.8
20260508034814 20 149 1.6 4.8 0.00 0.00 0.00 77 1014.7
20260508034312 20 156 1.6 3.2 0.00 0.00 0.00 77 1014.5
20260508033809 20 203 0.0 3.2 0.00 0.00 0.00 77 1014.7
20260508033307 20 298 4.8 9.7 0.00 0.00 0.00 76 1014.5
20260508032804 20 218 3.2 6.4 0.00 0.00 0.00 77 1014.3
20260508032305 20 7 3.2 6.4 0.00 0.00 0.00 77 1014.3
20260508031758 20 221 0.0 3.2 0.00 0.00 0.00 78 1014.6
20260508031254 20 190 0.0 1.6 0.00 0.00 0.00 78 1014.6
20260508030751 20 185 1.6 1.6 0.00 0.00 0.00 77 1014.6
20260508030248 20 310 3.2 6.4 0.00 0.00 0.00 78 1014.7
20260508025745 20 193 0.0 1.6 0.00 0.00 0.00 80 1014.7
20260508025242 20 167 1.6 3.2 0.00 0.00 0.00 80 1014.9
20260508024738 20 265 4.8 4.8 0.00 0.00 0.00 81 1015.0
20260508024235 20 338 3.2 4.8 0.00 0.00 0.00 82 1015.0
20260508023732 20 246 0.0 1.6 0.00 0.00 0.00 82 1015.1
20260508023229 20 302 1.6 3.2 0.00 0.00 0.00 83 1015.1
20260508022725 20 259 3.2 3.2 0.00 0.00 0.00 84 1014.9
20260508022222 20 255 1.6 1.6 0.00 0.00 0.00 83 1014.9
20260508021718 20 255 1.6 1.6 0.00 0.00 0.00 82 1014.8
20260508021214 20 254 0.0 1.6 0.00 0.00 0.00 82 1014.7
20260508020711 20 254 0.0 1.6 0.00 0.00 0.00 82 1014.6
20260508020208 20 255 0.0 0.0 0.00 0.00 0.00 82 1014.9
20260508015706 20 255 0.0 0.0 0.00 0.00 0.00 82 1015.3
20260508015203 20 254 0.0 0.0 0.00 0.00 0.00 82 1014.9
20260508014659 21 255 1.6 1.6 0.00 0.00 0.00 81 1014.8
20260508014155 21 238 0.0 1.6 0.00 0.00 0.00 81 1014.9
20260508013652 21 255 1.6 3.2 0.00 0.00 0.00 80 1015.0
20260508013148 21 237 0.0 0.0 0.00 0.00 0.00 80 1015.2
20260508012646 21 237 0.0 0.0 0.00 0.00 0.00 79 1014.9
20260508012143 21 245 0.0 4.8 0.00 0.00 0.00 79 1014.8
20260508011641 21 241 0.0 1.6 0.00 0.00 0.00 78 1014.8
20260508011138 21 241 0.0 0.0 0.00 0.00 0.00 77 1015.0
20260508010635 21 241 0.0 0.0 0.00 0.00 0.00 75 1014.7
20260508010133 22 240 1.6 1.6 0.00 0.00 0.00 74 1014.7
20260508005630 22 239 0.0 0.0 0.00 0.00 0.00 74 1014.6
20260508005126 22 242 0.0 1.6 0.00 0.00 0.00 73 1014.5
20260508004622 22 191 0.0 1.6 0.00 0.00 0.00 72 1014.7
20260508004119 22 217 1.6 3.2 0.00 0.00 0.00 72 1014.4
20260508003615 22 192 1.6 3.2 0.00 0.00 0.00 71 1014.5
20260508003113 22 193 0.0 4.8 0.00 0.00 0.00 71 1014.2
20260508002609 23 237 1.6 3.2 0.00 0.00 0.00 70 1014.4
20260508002107 23 254 1.6 3.2 0.00 0.00 0.00 69 1014.7
20260508001602 23 241 1.6 1.6 0.00 0.00 0.00 70 1014.6
20260508001058 23 269 1.6 4.8 0.00 0.00 0.00 69 1015.0
20260508000554 23 344 3.2 6.4 0.00 0.00 0.00 69 1015.1
20260508000052 23 18 1.6 3.2 0.00 0.00 0.00 69 1014.9
20260507235548 23 292 3.2 9.7 0.00 0.00 0.00 68 1014.8
20260507235046 23 291 1.6 6.4 0.00 0.00 0.00 70 1014.8
20260507234542 23 352 4.8 6.4 0.00 0.00 0.00 69 1014.9
20260507234039 23 301 3.2 4.8 0.00 0.00 0.00 70 1015.1
20260507233535 23 295 1.6 3.2 0.00 0.00 0.00 70 1015.0
20260507233034 23 297 3.2 4.8 0.00 0.00 0.00 68 1014.9
20260507232530 24 285 1.6 6.4 0.00 0.00 0.00 67 1015.0
20260507232028 24 313 4.8 9.7 0.00 0.00 0.00 66 1015.1
20260507231524 24 6 6.4 6.4 0.00 0.00 0.00 66 1014.6
20260507231021 24 221 3.2 6.4 0.00 0.00 0.00 66 1014.8
20260507230518 24 339 6.4 9.7 0.00 0.00 0.00 67 1014.6
20260507230014 24 280 6.4 11.3 0.00 0.00 0.00 67 1014.7
20260507225510 24 239 3.2 4.8 0.00 0.00 0.00 68 1014.8
20260507225007 24 355 6.4 9.7 0.00 0.00 0.00 69 1014.6
20260507224502 24 280 3.2 6.4 0.00 0.00 0.00 70 1014.3
20260507223959 24 347 8.0 11.3 0.00 0.00 0.00 69 1014.3
20260507223454 24 242 1.6 9.7 0.00 0.00 0.00 70 1014.2
20260507222952 24 303 4.8 9.7 0.00 0.00 0.00 69 1014.1
20260507222449 24 247 0.0 9.7 0.00 0.00 0.00 70 1014.2
20260507221945 25 252 3.2 9.7 0.00 0.00 0.00 69 1014.3
20260507221442 25 307 3.2 4.8 0.00 0.00 0.00 69 1014.2
20260507220938 24 279 1.6 9.7 0.00 0.00 0.00 69 1014.3
20260507220436 24 257 1.6 4.8 0.00 0.00 0.00 69 1014.5
20260507215932 24 347 4.8 6.4 0.00 0.00 0.00 68 1014.5
20260507215429 24 272 4.8 14.5 0.00 0.00 0.00 69 1014.5
20260507214926 24 265 1.6 4.8 0.00 0.00 0.00 69 1014.7
20260507214424 24 292 3.2 6.4 0.00 0.00 0.00 69 1014.7
20260507213919 25 354 9.7 11.3 0.00 0.00 0.00 68 1014.7
20260507213416 25 347 3.2 4.8 0.00 0.00 0.00 68 1014.8
20260507212913 24 328 6.4 11.3 0.00 0.00 0.00 69 1014.7
20260507212409 25 302 4.8 4.8 0.00 0.00 0.00 69 1014.6
20260507211906 24 284 0.0 4.8 0.00 0.00 0.00 70 1014.6
20260507211402 24 287 3.2 4.8 0.00 0.00 0.00 70 1014.8
20260507210859 24 254 3.2 9.7 0.00 0.00 0.00 71 1014.8
20260507210356 24 283 4.8 9.7 0.00 0.00 0.00 70 1014.8
20260507205853 24 11 9.7 11.3 0.00 0.00 0.00 70 1015.1
20260507205349 24 213 1.6 6.4 0.00 0.00 0.00 69 1015.1
20260507204846 24 325 6.4 11.3 0.00 0.00 0.00 69 1015.2
20260507204343 25 346 11.3 17.7 0.00 0.00 0.00 67 1015.0
20260507203841 25 265 3.2 6.4 0.00 0.00 0.00 69 1015.2
20260507203339 24 331 6.4 9.7 0.00 0.00 0.00 70 1015.4
20260507202834 23 42 6.4 12.9 0.00 0.00 0.00 70 1015.3
20260507202331 24 31 8.0 11.3 0.00 0.00 0.00 70 1015.1
20260507201826 23 335 1.6 6.4 0.00 0.00 0.00 71 1015.3
20260507201322 23 313 1.6 9.7 0.00 0.00 0.00 71 1015.3
20260507200819 24 177 6.4 11.3 0.00 0.00 0.00 70 1015.5
20260507200315 23 37 6.4 9.7 0.00 0.00 0.00 70 1015.7
20260507195811 24 47 6.4 14.5 0.00 0.00 0.00 69 1015.5
20260507195309 23 219 3.2 9.7 0.00 0.00 0.00 72 1015.7
20260507194806 23 272 3.2 9.7 0.00 0.00 0.00 72 1016.1
20260507194302 23 315 3.2 16.1 0.00 0.00 0.00 73 1015.9
20260507193758 23 357 4.8 6.4 0.00 0.00 0.00 71 1015.7
20260507193255 24 311 4.8 11.3 0.00 0.00 0.00 71 1015.6
20260507192751 23 159 3.2 6.4 0.00 0.00 0.00 72 1015.7
20260507192248 23 5 3.2 6.4 0.00 0.00 0.00 71 1015.8
20260507191744 23 261 4.8 6.4 0.00 0.00 0.00 71 1015.9
20260507191241 22 242 6.4 9.7 0.00 0.00 0.00 73 1016.2
20260507190738 23 314 4.8 11.3 0.00 0.00 0.00 73 1016.3
20260507190237 22 328 8.0 11.3 0.00 0.00 0.00 73 1016.5
20260507185735 22 314 6.4 11.3 0.00 0.00 0.00 72 1016.7
20260507185231 22 346 4.8 6.4 0.00 0.00 0.00 73 1016.9
20260507184729 22 304 3.2 4.8 0.00 0.00 0.00 76 1016.8
20260507184227 22 178 3.2 14.5 0.00 0.00 0.00 75 1016.5
20260507183723 22 6 4.8 9.7 0.00 0.00 0.00 75 1016.6
20260507183220 22 0 6.4 12.9 0.00 0.00 0.00 76 1016.8
20260507182717 22 337 8.0 14.5 0.00 0.00 0.00 75 1016.8
20260507182212 22 231 1.6 6.4 0.00 0.00 0.00 73 1016.8
20260507181709 21 12 1.6 11.3 0.00 0.00 0.00 75 1016.9
20260507181206 22 300 4.8 14.5 0.00 0.00 0.00 75 1016.8
20260507180702 21 343 6.4 11.3 0.00 0.00 0.00 76 1017.0
20260507180159 21 12 8.0 12.9 0.00 0.00 0.00 77 1017.1
20260507175655 21 317 6.4 14.5 0.00 0.00 0.00 78 1017.0
20260507175147 21 314 6.4 12.9 0.00 0.00 0.00 77 1017.1
20260507174644 22 329 4.8 4.8 0.00 0.00 0.00 76 1017.1
20260507174142 20 255 0.0 6.4 0.00 0.00 0.00 79 1017.4
20260507173639 20 279 3.2 11.3 0.00 0.00 0.00 79 1017.7
20260507173136 20 343 4.8 14.5 0.00 0.00 0.00 79 1017.8
20260507172632 20 250 3.2 4.8 0.00 0.00 0.00 79 1017.7
20260507172130 20 245 3.2 4.8 0.00 0.00 0.00 78 1017.9
20260507171629 20 252 1.6 9.7 0.00 0.00 0.00 78 1017.8
20260507171127 20 243 1.6 4.8 0.00 0.00 0.00 79 1017.8
20260507170624 20 241 3.2 6.4 0.00 0.00 0.00 79 1017.6
20260507170121 20 237 1.6 11.3 0.00 0.00 0.00 79 1017.5
20260507165616 20 285 1.6 4.8 0.00 0.00 0.00 78 1017.5
20260507165113 20 287 3.2 6.4 0.00 0.00 0.00 80 1017.7
20260507164609 19 356 4.8 4.8 0.00 0.00 0.00 80 1017.5
20260507164106 19 0 6.4 12.9 0.00 0.00 0.00 81 1017.6
20260507163604 19 332 4.8 14.5 0.00 0.00 0.00 81 1017.4
20260507163102 19 0 11.3 16.1 0.00 0.00 0.00 81 1017.2
20260507162601 19 248 3.2 9.7 0.00 0.00 0.00 81 1017.2
20260507162059 19 342 6.4 6.4 0.00 0.00 0.00 80 1017.1
20260507161555 20 129 4.8 11.3 0.00 0.00 0.00 80 1017.2
20260507161051 19 295 4.8 9.7 0.00 0.00 0.00 81 1017.0
20260507160548 18 217 4.8 9.7 0.00 0.00 0.00 81 1017.0
20260507160044 18 206 3.2 9.7 0.00 0.00 0.00 83 1016.8
20260507155539 18 221 3.2 11.3 0.00 0.00 0.00 83 1017.0
20260507155037 17 287 1.6 12.9 0.00 0.00 0.00 84 1016.8
20260507154534 17 331 9.7 17.7 0.00 0.00 0.00 84 1017.2
20260507154031 18 151 3.2 9.7 0.00 0.00 0.00 83 1017.3
20260507153528 17 5 6.4 17.7 0.00 0.00 0.00 85 1017.2
20260507153024 17 300 4.8 14.5 0.00 0.00 0.00 86 1017.4
20260507152520 17 350 8.0 12.9 0.00 0.00 0.00 85 1017.6
20260507152016 17 354 9.7 16.1 0.00 0.00 0.00 85 1017.4
20260507151513 17 8 9.7 16.1 0.00 0.00 0.00 86 1017.3
20260507151010 17 290 9.7 14.5 0.00 0.00 0.00 87 1017.2
20260507150506 17 337 4.8 12.9 0.00 0.00 0.00 87 1017.3
20260507150003 16 28 4.8 9.7 0.00 0.00 0.00 88 1017.0
20260507145458 16 350 6.4 11.3 0.00 0.00 0.00 88 1016.9
20260507144956 16 349 8.0 16.1 0.00 0.00 0.00 88 1017.0
20260507144452 16 283 3.2 9.7 0.00 0.00 0.00 89 1017.1
20260507143949 16 324 4.8 14.5 0.00 0.00 0.00 89 1017.1
20260507143447 16 336 3.2 14.5 0.00 0.00 0.00 90 1017.2
20260507142943 16 13 6.4 12.9 0.00 0.00 0.00 90 1017.1
20260507142439 16 358 9.7 12.9 0.00 0.00 0.00 91 1017.2
20260507141937 16 6 4.8 14.5 0.00 0.00 0.00 91 1017.0
20260507141432 16 270 3.2 4.8 0.00 0.00 0.00 92 1017.3
20260507140930 16 7 8.0 11.3 0.00 0.00 0.00 92 1017.3
20260507140426 16 334 9.7 12.9 0.00 0.00 0.00 92 1017.1
20260507135924 16 338 3.2 6.4 0.00 0.00 0.00 92 1017.4
20260507135420 16 21 4.8 12.9 0.00 0.00 0.00 91 1017.2
20260507134918 16 330 6.4 9.7 0.00 0.00 0.00 91 1017.3
20260507134414 16 3 3.2 4.8 0.00 0.00 0.00 91 1017.4
20260507133910 16 340 4.8 11.3 0.00 0.00 0.00 91 1017.3
20260507133406 16 320 3.2 12.9 0.00 0.00 0.00 91 1017.4
20260507132905 16 255 3.2 12.9 0.00 0.00 0.00 91 1017.3
20260507132400 16 277 4.8 14.5 0.00 0.00 0.00 91 1017.6
20260507131857 16 289 6.4 11.3 0.00 0.00 0.00 92 1017.4
20260507131355 16 262 3.2 9.7 0.00 0.00 0.00 91 1017.6
20260507130851 16 319 4.8 9.7 0.00 0.00 0.00 91 1017.7
20260507130348 16 22 6.4 11.3 0.00 0.00 0.00 91 1017.5
20260507125848 16 257 1.6 6.4 0.00 0.00 0.00 91 1017.5
20260507125344 16 358 4.8 14.5 0.00 0.00 0.00 92 1017.5
20260507124842 16 289 3.2 6.4 0.00 0.00 0.00 92 1017.7
20260507124338 16 234 1.6 9.7 0.00 0.00 0.00 92 1017.5
20260507123837 16 20 3.2 9.7 0.00 0.00 0.00 92 1017.2
20260507123333 16 278 4.8 6.4 0.00 0.00 0.00 92 1017.1
20260507122830 16 272 1.6 14.5 0.00 0.00 0.00 92 1016.8
20260507122325 16 244 1.6 6.4 0.00 0.00 0.00 92 1016.9
20260507121822 16 253 1.6 12.9 0.00 0.00 0.00 92 1016.5
20260507121317 16 334 4.8 6.4 0.00 0.00 0.00 92 1016.4
20260507120814 17 14 6.4 12.9 0.00 0.00 0.00 91 1016.1
20260507120310 17 7 4.8 6.4 0.00 0.00 0.00 91 1016.1
20260507115807 17 296 3.2 9.7 0.00 0.00 0.00 91 1016.0
20260507115306 17 1 3.2 6.4 0.00 0.00 0.00 91 1015.9
20260507114758 17 357 6.4 11.3 0.00 0.00 0.00 91 1015.9
20260507114256 17 288 3.2 6.4 0.00 0.00 0.00 91 1015.8
20260507113753 17 311 6.4 12.9 0.00 0.00 0.00 91 1015.8
20260507113249 17 12 9.7 14.5 0.00 0.00 0.00 91 1016.1
20260507112748 17 327 6.4 9.7 0.00 0.00 0.00 91 1016.1
20260507112244 17 313 6.4 14.5 0.00 0.00 0.00 91 1015.8
20260507111742 17 287 9.7 12.9 0.00 0.00 0.00 91 1015.7
20260507111238 17 347 4.8 6.4 0.00 0.00 0.00 91 1015.9
20260507110734 17 316 3.2 14.5 0.00 0.00 0.00 91 1015.3
20260507110231 17 310 4.8 6.4 0.00 0.00 0.00 91 1015.6
20260507105728 17 330 8.0 11.3 0.00 0.00 0.00 92 1015.4
20260507105224 17 245 1.6 6.4 0.00 0.00 0.00 92 1015.3
20260507104722 17 332 4.8 4.8 0.00 0.00 0.00 92 1015.0
20260507104218 17 235 0.0 3.2 0.00 0.00 0.00 92 1015.3
20260507103714 17 56 3.2 4.8 0.00 0.00 0.00 92 1015.1
20260507103210 17 263 0.0 3.2 0.00 0.00 0.00 92 1015.0
20260507102707 17 245 0.0 3.2 0.00 0.00 0.00 92 1015.2
20260507102204 17 279 4.8 6.4 0.00 0.00 0.00 92 1014.7
20260507101659 17 35 3.2 6.4 0.00 0.00 0.00 92 1014.9
20260507101155 17 24 4.8 9.7 0.00 0.00 0.00 92 1014.8
20260507100653 17 300 4.8 9.7 0.00 0.00 0.00 92 1014.5
20260507100151 17 278 3.2 3.2 0.00 0.00 0.00 92 1014.9
20260507095648 17 179 3.2 3.2 0.00 0.00 0.00 92 1014.7
20260507095145 17 350 4.8 6.4 0.00 0.00 0.00 92 1014.6
20260507094641 17 231 0.0 4.8 0.00 0.00 0.00 92 1014.8
20260507094138 17 11 3.2 12.9 0.00 0.00 0.00 92 1014.3
20260507093635 17 307 3.2 11.3 0.00 0.00 0.00 92 1014.3
20260507093134 17 234 4.8 6.4 0.00 0.00 0.00 92 1014.3
20260507092631 17 227 3.2 11.3 0.00 0.00 0.00 92 1014.2
20260507092127 17 11 6.4 9.7 0.00 0.00 0.00 92 1014.4
20260507091624 17 288 1.6 6.4 0.00 0.00 0.00 92 1014.3
20260507091120 17 322 4.8 9.7 0.00 0.00 0.00 92 1014.2
20260507090616 17 280 3.2 6.4 0.00 0.00 0.00 92 1014.2
20260507090113 17 346 6.4 11.3 0.00 0.00 0.00 92 1014.3
20260507085610 17 307 3.2 4.8 0.00 0.00 0.00 92 1014.2
20260507085106 17 333 8.0 11.3 0.00 0.00 0.00 92 1014.2
20260507084603 17 10 4.8 4.8 0.00 0.00 0.00 92 1014.3
20260507084100 17 243 1.6 3.2 0.00 0.00 0.00 92 1014.2
20260507083556 17 275 6.4 9.7 0.00 0.00 0.00 92 1014.2
20260507083054 17 256 3.2 6.4 0.00 0.00 0.00 92 1014.2
20260507082549 17 359 6.4 9.7 0.00 0.00 0.00 92 1014.3
20260507082046 17 255 1.6 4.8 0.00 0.00 0.00 92 1014.4
20260507081542 17 321 3.2 6.4 0.00 0.00 0.00 92 1014.0
20260507081040 17 332 3.2 9.7 0.00 0.00 0.00 92 1014.1
20260507080535 17 259 3.2 6.4 0.00 0.00 0.00 91 1014.5
20260507080032 17 6 4.8 12.9 0.00 0.00 0.00 91 1014.5
20260507075527 17 334 6.4 9.7 0.00 0.00 0.00 91 1014.1
20260507075024 17 321 3.2 11.3 0.00 0.00 0.00 91 1014.3
20260507074520 17 348 6.4 9.7 0.00 0.00 0.00 91 1014.4
20260507074020 17 293 3.2 4.8 0.00 0.00 0.00 91 1014.6
20260507073515 17 321 4.8 6.4 0.00 0.00 0.00 91 1014.6
20260507073012 17 257 1.6 3.2 0.00 0.00 0.00 91 1015.0
20260507072509 17 350 6.4 9.7 0.00 0.00 0.00 90 1014.6
20260507072006 18 258 1.6 4.8 0.00 0.00 0.00 90 1014.5
20260507071504 18 11 6.4 9.7 0.00 0.00 0.00 90 1014.6
20260507071000 18 204 3.2 6.4 0.00 0.00 0.00 90 1014.2
20260507070457 18 351 3.2 9.7 0.00 0.00 0.00 90 1014.8
20260507065954 18 247 3.2 4.8 0.00 0.00 0.00 89 1014.8
20260507065451 18 252 1.6 11.3 0.00 0.00 0.00 89 1015.0
20260507064948 18 266 3.2 4.8 0.00 0.00 0.00 89 1015.1
20260507064446 18 7 8.0 9.7 0.00 0.00 0.00 89 1015.0
20260507063943 18 249 4.8 6.4 0.00 0.00 0.00 89 1014.9
20260507063440 18 356 3.2 9.7 0.00 0.00 0.00 89 1014.9
20260507062937 18 287 6.4 9.7 0.00 0.00 0.00 88 1015.1
20260507062434 18 246 3.2 4.8 0.00 0.00 0.00 88 1014.6
20260507061932 18 295 3.2 14.5 0.00 0.00 0.00 88 1014.5
20260507061429 18 334 4.8 9.7 0.00 0.00 0.00 88 1015.0
20260507060928 18 242 1.6 4.8 0.00 0.00 0.00 88 1014.8
20260507060424 18 311 3.2 6.4 0.00 0.00 0.00 88 1014.5
20260507055921 18 298 6.4 20.9 0.00 0.00 0.00 88 1014.3
20260507055416 18 300 4.8 12.9 0.00 0.00 0.00 88 1014.5
20260507054914 18 103 4.8 9.7 0.00 0.00 0.00 88 1014.6
20260507054409 18 341 1.6 4.8 0.00 0.00 0.00 88 1014.6
20260507053907 18 355 9.7 12.9 0.00 0.00 0.00 88 1014.7
20260507053404 18 339 1.6 4.8 0.00 0.00 0.00 87 1014.8
20260507052903 18 316 3.2 6.4 0.00 0.00 0.00 87 1014.8
20260507052400 18 289 4.8 12.9 0.00 0.00 0.00 87 1014.5
20260507051857 18 354 6.4 9.7 0.00 0.00 0.00 87 1014.5
20260507051355 18 282 3.2 12.9 0.00 0.00 0.00 87 1014.4
20260507050851 18 288 4.8 12.9 0.00 0.00 0.00 87 1014.6
20260507050348 18 7 3.2 16.1 0.00 0.00 0.00 87 1014.6